Regional Weather Roundup
Issued by NWS

Home | Current Version | Previous Version | Graphics & Text | Print | Product List | Glossary On
Versions: 1 2 3 4 5 6 7 8 9 10 11 12 13 14 15 16 17 18 19 20 21 22 23 24 25 26 27
000
ASUS45 KPSR 250610
RWRAZ

ARIZONA HOURLY REGIONAL WEATHER ROUNDUP
NATIONAL WEATHER SERVICE PHOENIX AZ
1100 PM MST SAT SEP 24 2016

NOTE: FAIR INDICATES FEW OR NO CLOUDS BELOW 12,000 FEET WITH NO
SIGNIFICANT WEATHER AND/OR OBSTRUCTIONS TO VISIBILITY.

AZZ001>003-036-250700-
NORTHWEST ARIZONA

CITY           SKY/WX    TMP DP  RH WIND       PRES   REMARKS
BULLHEAD CITY  CLEAR     75  32  20 NE7       30.01S
KINGMAN        CLEAR     59  32  36 NE5       30.17R
6HR MIN TEMP:  58; 6HR MAX TEMP:  79;

$$

AZZ004>008-015-016-018-250700-
NORTH CENTRAL ARIZONA

CITY           SKY/WX    TMP DP  RH WIND       PRES   REMARKS
GRAND CANYON   CLEAR     40  36  86 NE6       30.34R
6HR MIN TEMP:  39; 6HR MAX TEMP:  63;

PRESCOTT       CLEAR     54  37  52 CALM      30.22S
6HR MIN TEMP:  53; 6HR MAX TEMP:  72;

FLAGSTAFF      CLEAR     50  31  48 NE14      30.31F
6HR MIN TEMP:  48; 6HR MAX TEMP:  61;

PAYSON         CLEAR     63  28  27 NE12G23   30.21F
PAGE           PTCLDY    65  36  34 N9        30.27R
6HR MIN TEMP:  65; 6HR MAX TEMP:  72;

$$

AZZ009>014-017-250700-
NORTHEAST ARIZONA

CITY           SKY/WX    TMP DP  RH WIND       PRES   REMARKS
WINSLOW        CLEAR     51  28  41 SW5       30.24S
6HR MIN TEMP:  51; 6HR MAX TEMP:  72;

SAINT JOHNS    CLEAR     47  32  56 W3        30.24R
6HR MIN TEMP:  47; 6HR MAX TEMP:  69;

WINDOW ROCK    CLEAR     41  31  67 CALM      30.30S
6HR MIN TEMP:  41; 6HR MAX TEMP:  65;

SHOW LOW       CLEAR     48  25  40 N12       30.28R
$$

AZZ023-250700-
GREATER PHOENIX AREA

CITY           SKY/WX    TMP DP  RH WIND       PRES   REMARKS
PHOENIX        CLEAR     77  40  26 E5        29.93S
6HR MIN TEMP:  77; 6HR MAX TEMP:  90;

BUCKEYE        CLEAR     75  34  22 N8        29.95S
LUKE AFB       CLEAR     77  37  22 N8        29.93R
6HR MIN TEMP:  77; 6HR MAX TEMP:  89;

DEER VALLEY    CLEAR     75  32  20 N12       29.96R
6HR MIN TEMP:  74; 6HR MAX TEMP:  87;

SCOTTSDALE     CLEAR     78  34  20 NE7       29.98R
6HR MIN TEMP:  75; 6HR MAX TEMP:  88;

MESA-GATEWAY   CLEAR     70  34  26 E6        29.97R
$$

AZZ027-028-250700-
SOUTHWEST MARICOPA COUNTY AND PINAL COUNTY

CITY           SKY/WX    TMP DP  RH WIND       PRES   REMARKS
CASA GRANDE    CLEAR     66  27  22 NE5       29.97S
6HR MIN TEMP:  66; 6HR MAX TEMP:  86;

GILA BEND      FAIR      71  31  22 SW5       29.92S
6HR MIN TEMP:  71; 6HR MAX TEMP:  89;

$$

AZZ503-504-507>509-250700-
SOUTHEAST ARIZONA

CITY           SKY/WX    TMP DP  RH WIND       PRES   REMARKS
TUCSON         CLEAR     67  27  22 CALM      30.04R
6HR MIN TEMP:  67; 6HR MAX TEMP:  84;

DAVIS-MONTHAN  CLEAR     62  29  28 SE7       30.03R
6HR MIN TEMP:  62; 6HR MAX TEMP:  82;

NOGALES        CLEAR     55  35  47 E5        30.09R
6HR MIN TEMP:  55; 6HR MAX TEMP:  78;

SIERRA VISTA   CLEAR     61  23  23 W9        30.14S
6HR MIN TEMP:  61; 6HR MAX TEMP:  74;

DOUGLAS        MOCLDY    65  36  34 NW12      30.09S
6HR MIN TEMP:  64; 6HR MAX TEMP:  80;

SAFFORD        CLEAR     64  28  25 NW12      30.01F
6HR MIN TEMP:  64; 6HR MAX TEMP:  82; 6HR PCP: TRACE;

$$

AZZ020-021-025-026-031-250700-
SOUTHWEST ARIZONA

CITY           SKY/WX    TMP DP  RH WIND       PRES   REMARKS
YUMA           CLEAR     82  31  15 N6        29.93R
6HR MIN TEMP:  80; 6HR MAX TEMP:  94;

$$

CAZ031-033-041-043-047-048-061-250700-
SOUTHERN CALIFORNIA

CITY           SKY/WX    TMP DP  RH WIND       PRES   REMARKS
DOWNTOWN L.A.  CLEAR     70  53  54 CALM      29.96S
6HR MIN TEMP:  70; 6HR MAX TEMP:  82;

L.A. AIRPORT   CLEAR     71  52  50 SE5       29.97R
6HR MIN TEMP:  69; 6HR MAX TEMP:  78;

SAN DIEGO      PTCLDY    73  48  41 CALM      29.99S
6HR MIN TEMP:  73; 6HR MAX TEMP:  84;

BURBANK        CLEAR     74  35  24 N6        29.99R
6HR MIN TEMP:  72; 6HR MAX TEMP:  89;

ONTARIO        CLEAR     75  26  16 CALM      30.00S
6HR MIN TEMP:  72; 6HR MAX TEMP:  92;

RIVERSIDE      CLEAR     73  38  27 E5        30.00R
6HR MIN TEMP:  70; 6HR MAX TEMP:  92;

PALM SPRINGS   CLEAR     81  38  21 SW5       29.99S
6HR MIN TEMP:  80; 6HR MAX TEMP:  96;

EL CENTRO NAS  CLEAR     74  32  21 W10       29.95S
6HR MIN TEMP:  73; 6HR MAX TEMP:  95;

IMPERIAL       CLEAR     75  40  28 W7        29.92F
6HR MIN TEMP:  74; 6HR MAX TEMP:  97;

BLYTHE         CLEAR     79  29  16 NW6       29.96R
6HR MIN TEMP:  79; 6HR MAX TEMP:  94;

NEEDLES        CLEAR     79  30  16 NW9       30.01R
6HR MIN TEMP:  79; 6HR MAX TEMP:  92;

$$

NVZ020-UTZ003-250700-
SOUTHERN NEVADA-UTAH

CITY           SKY/WX    TMP DP  RH WIND       PRES   REMARKS
LAS VEGAS      CLEAR     74  31  20 W5        30.12R
6HR MIN TEMP:  73; 6HR MAX TEMP:  87;

SALT LAKE CITY CLEAR     51  43  74 CALM      30.38R
6HR MIN TEMP:  50; 6HR MAX TEMP:  62;

$$

NMZ009-TXZ055-250700-
NEW MEXICO-WEST TEXAS

CITY           SKY/WX    TMP DP  RH WIND       PRES   REMARKS
ALBUQUERQUE    CLEAR     59  34  39 N8        30.19R
6HR MIN TEMP:  59; 6HR MAX TEMP:  69;

EL PASO        PTCLDY    70  39  32 N3        30.02S
6HR MIN TEMP:  68; 6HR MAX TEMP:  82;

$$


........................KEY........................
SKY/WX - SKY CONDITION/WEATHER
TMP    - TEMPERATURE IN FAHRENHEIT
DP     - DEW POINT IN FAHRENHEIT
RH     - RELATIVE HUMIDITY IN PERCENT
WIND   - DIRECTION AND SPEED IN MILES PER HOUR (MPH)
VRB    - VARIABLE WIND DIRECTION
PRES   - MEAN SEA LEVEL PRESSURE IN INCHES OF MERCURY
         F - FALLING PRESSURE   R - RISING PRESSURE
         S - STEADY PRESSURE
VSB    - VISIBILITY IN MILES
HX     - HEAT INDEX IN FAHRENHEIT
WCI    - WIND CHILL INDEX IN FAHRENHEIT
TC     - TEMPERATURE IN CELSIUS WHICH IS ALSO KNOWN AS
         TEMPERATURE IN CENTIGRADE
AFB    - AIR FORCE BASE
         LUKE AFB IS LUKE AIR FORCE BASE
         DAVIS-MONTHAN IS DAVIS-MONTHAN AIR FORCE BASE
NAS    - NAVAL AIR STATION
         EL CENTRO NAS IS EL CENTRO NAVAL AIR STATION
N/A    - NOT AVAILABLE





USA.gov is the U.S. government's official web portal to all federal, state and local government web resources and services.